| time (UTC) | temp F | wind direction | speed MPH | gust MPH | rain 1hr in | rain 24hr in | rain mn in | humidity % | barometer mb |
| 20260903115506 | 61 | 243 | 0.0 | 2.0 | 0.01 | 0.03 | 0.03 | 96 | 1015.7 |
| 20260903115003 | 61 | 199 | 0.0 | 2.0 | 0.01 | 0.03 | 0.03 | 96 | 1015.7 |
| 20260903114511 | 61 | 257 | 1.0 | 2.0 | 0.01 | 0.03 | 0.03 | 96 | 1015.7 |
| 20260903114003 | 61 | 214 | 1.0 | 2.0 | 0.01 | 0.03 | 0.03 | 96 | 1015.7 |
| 20260903113504 | 61 | 225 | 0.0 | 0.0 | 0.01 | 0.03 | 0.03 | 96 | 1015.6 |
| 20260903113024 | 61 | 226 | 0.0 | 0.0 | 0.01 | 0.03 | 0.03 | 96 | 1015.6 |
| 20260903112511 | 61 | 211 | 0.0 | 0.0 | 0.01 | 0.03 | 0.03 | 96 | 1015.6 |
| 20260903112009 | 61 | 216 | 0.0 | 0.0 | 0.01 | 0.03 | 0.03 | 96 | 1015.6 |
| 20260903111526 | 61 | 240 | 0.0 | 0.0 | 0.01 | 0.03 | 0.03 | 96 | 1015.6 |
| 20260903111011 | 61 | 167 | 0.0 | 0.0 | 0.01 | 0.03 | 0.03 | 96 | 1015.7 |
| 20260903110514 | 61 | 166 | 0.0 | 0.0 | 0.01 | 0.03 | 0.03 | 96 | 1015.7 |
| 20260903110029 | 61 | 166 | 0.0 | 0.0 | 0.01 | 0.03 | 0.03 | 96 | 1015.7 |
| 20260903105513 | 61 | 166 | 0.0 | 0.0 | 0.00 | 0.02 | 0.02 | 96 | 1015.7 |
| 20260903105015 | 61 | 166 | 0.0 | 0.0 | 0.00 | 0.02 | 0.02 | 96 | 1015.6 |
| 20260903104530 | 61 | 166 | 0.0 | 0.0 | 0.00 | 0.02 | 0.02 | 96 | 1015.6 |
| 20260903104004 | 61 | 166 | 0.0 | 0.0 | 0.00 | 0.02 | 0.02 | 96 | 1015.5 |
| 20260903103503 | 61 | 165 | 0.0 | 0.0 | 0.00 | 0.02 | 0.02 | 96 | 1015.3 |
| 20260903103014 | 61 | 172 | 0.0 | 0.0 | 0.00 | 0.02 | 0.02 | 96 | 1015.4 |
| 20260903102508 | 61 | 172 | 0.0 | 0.0 | 0.00 | 0.02 | 0.02 | 96 | 1015.4 |
| 20260903102008 | 61 | 172 | 0.0 | 0.0 | 0.00 | 0.02 | 0.02 | 96 | 1015.4 |
| 20260903101524 | 61 | 172 | 0.0 | 0.0 | 0.00 | 0.02 | 0.02 | 96 | 1015.5 |
| 20260903101012 | 61 | 172 | 0.0 | 0.0 | 0.00 | 0.02 | 0.02 | 96 | 1015.5 |
| 20260903100511 | 61 | 172 | 0.0 | 0.0 | 0.00 | 0.02 | 0.02 | 95 | 1015.5 |
| 20260903100028 | 61 | 172 | 0.0 | 0.0 | 0.00 | 0.02 | 0.02 | 95 | 1015.4 |
| 20260903095515 | 61 | 172 | 0.0 | 0.0 | 0.00 | 0.02 | 0.02 | 95 | 1015.4 |
| 20260903095012 | 61 | 173 | 0.0 | 0.0 | 0.00 | 0.02 | 0.02 | 95 | 1015.5 |
| 20260903094535 | 61 | 175 | 0.0 | 0.0 | 0.00 | 0.02 | 0.02 | 95 | 1015.4 |
| 20260903094017 | 61 | 178 | 0.0 | 1.0 | 0.00 | 0.02 | 0.02 | 95 | 1015.6 |
| 20260903093516 | 61 | 177 | 0.0 | 2.0 | 0.00 | 0.02 | 0.02 | 95 | 1015.6 |
| 20260903093041 | 61 | 207 | 0.0 | 2.0 | 0.00 | 0.02 | 0.02 | 95 | 1015.6 |
| 20260903092518 | 61 | 225 | 0.0 | 3.0 | 0.00 | 0.02 | 0.02 | 95 | 1015.6 |
| 20260903092006 | 61 | 212 | 0.0 | 3.0 | 0.00 | 0.02 | 0.02 | 95 | 1015.5 |
| 20260903091516 | 61 | 159 | 1.0 | 4.0 | 0.01 | 0.02 | 0.02 | 95 | 1015.4 |
| 20260903091008 | 61 | 153 | 2.0 | 4.0 | 0.01 | 0.02 | 0.02 | 94 | 1015.5 |
| 20260903090506 | 61 | 186 | 1.0 | 3.0 | 0.01 | 0.02 | 0.02 | 94 | 1015.6 |
| 20260903090031 | 61 | 136 | 1.0 | 3.0 | 0.01 | 0.02 | 0.02 | 94 | 1015.7 |
| 20260903085511 | 61 | 158 | 1.0 | 1.0 | 0.01 | 0.02 | 0.02 | 94 | 1015.9 |
| 20260903085009 | 61 | 160 | 0.0 | 3.0 | 0.01 | 0.02 | 0.02 | 94 | 1016.0 |
| 20260903084530 | 61 | 205 | 0.0 | 3.0 | 0.01 | 0.02 | 0.02 | 93 | 1016.1 |
| 20260903084014 | 61 | 174 | 0.0 | 2.0 | 0.01 | 0.02 | 0.02 | 93 | 1016.1 |
| 20260903083516 | 61 | 242 | 0.0 | 2.0 | 0.01 | 0.02 | 0.02 | 93 | 1016.2 |
| 20260903083028 | 61 | 203 | 0.0 | 2.0 | 0.01 | 0.02 | 0.02 | 92 | 1016.1 |
| 20260903082516 | 61 | 227 | 0.0 | 2.0 | 0.01 | 0.02 | 0.02 | 92 | 1016.0 |
| 20260903082018 | 61 | 205 | 0.0 | 2.0 | 0.01 | 0.02 | 0.02 | 92 | 1016.1 |
| 20260903081533 | 61 | 230 | 1.0 | 2.0 | 0.00 | 0.01 | 0.01 | 91 | 1016.1 |
| 20260903081016 | 62 | 210 | 0.0 | 1.0 | 0.00 | 0.01 | 0.01 | 92 | 1016.1 |
| 20260903080508 | 62 | 210 | 0.0 | 0.0 | 0.00 | 0.01 | 0.01 | 92 | 1016.0 |
| 20260903080028 | 62 | 210 | 0.0 | 0.0 | 0.00 | 0.01 | 0.01 | 91 | 1015.9 |
| 20260903075511 | 62 | 210 | 0.0 | 0.0 | 0.00 | 0.01 | 0.01 | 91 | 1016.0 |
| 20260903075009 | 62 | 210 | 0.0 | 0.0 | 0.00 | 0.01 | 0.01 | 91 | 1016.1 |
| 20260903074527 | 62 | 210 | 0.0 | 1.0 | 0.00 | 0.01 | 0.01 | 91 | 1016.2 |
| 20260903074016 | 62 | 177 | 0.0 | 1.0 | 0.00 | 0.01 | 0.01 | 91 | 1015.9 |
| 20260903073513 | 62 | 207 | 0.0 | 1.0 | 0.00 | 0.01 | 0.01 | 91 | 1015.8 |
| 20260903073037 | 62 | 105 | 0.0 | 1.0 | 0.00 | 0.01 | 0.01 | 91 | 1016.0 |
| 20260903072514 | 62 | 158 | 0.0 | 1.0 | 0.00 | 0.01 | 0.01 | 90 | 1016.1 |
| 20260903072015 | 62 | 219 | 0.0 | 1.0 | 0.00 | 0.01 | 0.01 | 91 | 1016.4 |
| 20260903071536 | 62 | 229 | 0.0 | 1.0 | 0.00 | 0.01 | 0.01 | 91 | 1016.4 |
| 20260903071015 | 61 | 259 | 0.0 | 1.0 | 0.00 | 0.01 | 0.01 | 91 | 1016.4 |
| 20260903070516 | 61 | 254 | 0.0 | 1.0 | 0.01 | 0.01 | 0.01 | 91 | 1016.5 |
| 20260903070032 | 61 | 253 | 0.0 | 1.0 | 0.01 | 0.01 | 0.01 | 91 | 1016.5 |
| 20260903065518 | 62 | 264 | 0.0 | 1.0 | 0.01 | 0.01 | 0.01 | 91 | 1016.6 |
| 20260903065010 | 62 | 264 | 0.0 | 1.0 | 0.01 | 0.01 | 0.01 | 91 | 1016.3 |
| 20260903064521 | 62 | 264 | 0.0 | 2.0 | 0.01 | 0.01 | 0.01 | 91 | 1016.3 |
| 20260903064010 | 62 | 205 | 0.0 | 2.0 | 0.01 | 0.01 | 0.01 | 90 | 1015.9 |
| 20260903063516 | 62 | 203 | 1.0 | 2.0 | 0.01 | 0.01 | 0.01 | 90 | 1015.9 |
| 20260903063028 | 62 | 162 | 1.0 | 2.0 | 0.01 | 0.01 | 0.01 | 89 | 1016.1 |
| 20260903062515 | 62 | 176 | 0.0 | 0.0 | 0.01 | 0.01 | 0.01 | 89 | 1016.5 |
| 20260903062016 | 62 | 162 | 0.0 | 0.0 | 0.01 | 0.01 | 0.01 | 88 | 1016.7 |
| 20260903061542 | 63 | 162 | 0.0 | 3.0 | 0.01 | 0.01 | 0.01 | 87 | 1016.5 |
| 20260903061016 | 63 | 129 | 1.0 | 4.0 | 0.01 | 0.01 | 0.01 | 86 | 1016.4 |
| 20260903060516 | 63 | 240 | 2.0 | 4.0 | 0.00 | 0.00 | 0.00 | 84 | 1016.7 |
| 20260903060033 | 63 | 162 | 1.0 | 5.0 | 0.00 | 0.00 | 0.00 | 84 | 1017.0 |
| 20260903055505 | 64 | 209 | 2.0 | 5.0 | 0.00 | 0.00 | 0.00 | 83 | 1017.2 |
| 20260903055009 | 64 | 193 | 2.0 | 5.0 | 0.00 | 0.00 | 0.00 | 83 | 1017.3 |
| 20260903054502 | 64 | 198 | 2.0 | 5.0 | 0.00 | 0.00 | 0.00 | 82 | 1017.5 |
| 20260903054002 | 64 | 189 | 3.0 | 5.0 | 0.00 | 0.00 | 0.00 | 82 | 1017.5 |
| 20260903053501 | 64 | 212 | 3.0 | 5.0 | 0.00 | 0.00 | 0.00 | 81 | 1017.6 |
| 20260903053003 | 64 | 196 | 2.0 | 5.0 | 0.00 | 0.00 | 0.00 | 81 | 1017.8 |
| 20260903052505 | 64 | 197 | 3.0 | 5.0 | 0.00 | 0.00 | 0.00 | 80 | 1017.8 |
| 20260903052006 | 64 | 184 | 3.0 | 5.0 | 0.00 | 0.00 | 0.00 | 81 | 1017.8 |
| 20260903051504 | 64 | 214 | 1.0 | 4.0 | 0.00 | 0.00 | 0.00 | 81 | 1017.8 |
| 20260903051005 | 65 | 218 | 3.0 | 4.0 | 0.00 | 0.00 | 0.00 | 81 | 1017.8 |
| 20260903050505 | 65 | 218 | 2.0 | 3.0 | 0.00 | 0.00 | 0.00 | 81 | 1017.8 |
| 20260903050024 | 65 | 208 | 2.0 | 3.0 | 0.00 | 0.00 | 0.00 | 80 | 1017.8 |
| 20260903045506 | 65 | 226 | 0.0 | 3.0 | 0.00 | 0.00 | 0.00 | 80 | 1017.8 |
| 20260903045004 | 65 | 212 | 2.0 | 5.0 | 0.00 | 0.00 | 0.00 | 80 | 1017.8 |
| 20260903044514 | 65 | 207 | 3.0 | 6.0 | 0.00 | 0.00 | 0.00 | 79 | 1017.8 |
| 20260903044006 | 65 | 203 | 3.0 | 6.0 | 0.00 | 0.00 | 0.00 | 79 | 1017.7 |
| 20260903043508 | 65 | 121 | 2.0 | 4.0 | 0.00 | 0.00 | 0.00 | 80 | 1017.8 |
| 20260903043024 | 65 | 198 | 0.0 | 5.0 | 0.00 | 0.00 | 0.00 | 80 | 1018.0 |
| 20260903042502 | 65 | 210 | 2.0 | 5.0 | 0.00 | 0.00 | 0.00 | 79 | 1018.0 |
| 20260903042002 | 65 | 180 | 2.0 | 4.0 | 0.00 | 0.00 | 0.00 | 79 | 1017.9 |
| 20260903041508 | 65 | 221 | 2.0 | 4.0 | 0.00 | 0.00 | 0.00 | 80 | 1018.1 |
| 20260903041004 | 65 | 211 | 2.0 | 4.0 | 0.00 | 0.00 | 0.00 | 79 | 1018.1 |
| 20260903040504 | 65 | 149 | 1.0 | 4.0 | 0.00 | 0.00 | 0.00 | 79 | 1018.4 |
| 20260903040004 | 66 | 221 | 0.0 | 4.0 | 0.00 | 0.00 | 0.00 | 79 | 1018.3 |
| 20260903035501 | 66 | 217 | 1.0 | 5.0 | 0.00 | 0.00 | 0.00 | 79 | 1018.2 |
| 20260903035004 | 66 | 240 | 1.0 | 5.0 | 0.00 | 0.00 | 0.00 | 80 | 1018.2 |
| 20260903034515 | 66 | 267 | 2.0 | 5.0 | 0.00 | 0.00 | 0.00 | 80 | 1018.1 |
| 20260903034006 | 66 | 224 | 1.0 | 5.0 | 0.00 | 0.00 | 0.00 | 80 | 1018.1 |
| 20260903033506 | 66 | 203 | 1.0 | 3.0 | 0.00 | 0.00 | 0.00 | 80 | 1018.1 |
| 20260903033021 | 66 | 212 | 1.0 | 6.0 | 0.00 | 0.00 | 0.00 | 80 | 1018.1 |
| 20260903032513 | 66 | 188 | 3.0 | 6.0 | 0.00 | 0.00 | 0.00 | 79 | 1018.2 |
| 20260903032011 | 66 | 226 | 1.0 | 5.0 | 0.00 | 0.00 | 0.00 | 80 | 1018.3 |
| 20260903031525 | 66 | 217 | 1.0 | 5.0 | 0.00 | 0.00 | 0.00 | 79 | 1018.3 |
| 20260903031002 | 66 | 209 | 1.0 | 4.0 | 0.00 | 0.00 | 0.00 | 79 | 1018.3 |
| 20260903030504 | 66 | 236 | 0.0 | 5.0 | 0.00 | 0.00 | 0.00 | 79 | 1018.4 |
| 20260903030004 | 66 | 186 | 2.0 | 5.0 | 0.00 | 0.00 | 0.00 | 78 | 1018.4 |
| 20260903025506 | 66 | 242 | 2.0 | 6.0 | 0.00 | 0.00 | 0.00 | 79 | 1018.5 |
| 20260903025005 | 66 | 193 | 4.0 | 6.0 | 0.00 | 0.00 | 0.00 | 78 | 1018.5 |
| 20260903024506 | 66 | 211 | 4.0 | 7.0 | 0.00 | 0.00 | 0.00 | 78 | 1018.6 |
| 20260903024005 | 66 | 198 | 3.0 | 7.0 | 0.00 | 0.00 | 0.00 | 79 | 1018.8 |
| 20260903023510 | 66 | 190 | 3.0 | 5.0 | 0.00 | 0.00 | 0.00 | 78 | 1018.7 |
| 20260903023013 | 66 | 182 | 3.0 | 5.0 | 0.00 | 0.00 | 0.00 | 78 | 1018.8 |
| 20260903022507 | 66 | 210 | 2.0 | 5.0 | 0.00 | 0.00 | 0.00 | 79 | 1018.9 |
| 20260903022005 | 66 | 173 | 1.0 | 5.0 | 0.00 | 0.00 | 0.00 | 78 | 1019.0 |
| 20260903021523 | 66 | 144 | 1.0 | 5.0 | 0.00 | 0.00 | 0.00 | 78 | 1018.9 |
| 20260903021010 | 67 | 153 | 2.0 | 4.0 | 0.00 | 0.00 | 0.00 | 78 | 1019.1 |
| 20260903020509 | 67 | 213 | 2.0 | 4.0 | 0.00 | 0.00 | 0.00 | 78 | 1019.4 |
| 20260903020032 | 67 | 217 | 2.0 | 3.0 | 0.00 | 0.00 | 0.00 | 78 | 1019.4 |
| 20260903015505 | 67 | 194 | 0.0 | 3.0 | 0.00 | 0.00 | 0.00 | 79 | 1019.6 |
| 20260903015002 | 67 | 209 | 0.0 | 3.0 | 0.00 | 0.00 | 0.00 | 80 | 1019.5 |
| 20260903014509 | 67 | 181 | 2.0 | 3.0 | 0.00 | 0.00 | 0.00 | 79 | 1019.2 |
| 20260903014002 | 67 | 205 | 0.0 | 5.0 | 0.00 | 0.00 | 0.00 | 79 | 1019.4 |
| 20260903013500 | 67 | 207 | 2.0 | 5.0 | 0.00 | 0.00 | 0.00 | 79 | 1019.2 |
| 20260903013010 | 67 | 220 | 3.0 | 5.0 | 0.00 | 0.00 | 0.00 | 79 | 1019.1 |
| 20260903012506 | 67 | 186 | 1.0 | 6.0 | 0.00 | 0.00 | 0.00 | 80 | 1019.4 |
| 20260903012006 | 67 | 203 | 2.0 | 6.0 | 0.00 | 0.00 | 0.00 | 80 | 1019.4 |
| 20260903011516 | 67 | 203 | 1.0 | 2.0 | 0.00 | 0.00 | 0.00 | 81 | 1019.3 |
| 20260903011007 | 67 | 252 | 0.0 | 2.0 | 0.00 | 0.00 | 0.00 | 81 | 1019.5 |
| 20260903010509 | 67 | 129 | 1.0 | 4.0 | 0.00 | 0.00 | 0.00 | 81 | 1019.5 |
| 20260903010024 | 67 | 216 | 2.0 | 4.0 | 0.00 | 0.00 | 0.00 | 81 | 1019.5 |
| 20260903005515 | 67 | 211 | 1.0 | 5.0 | 0.00 | 0.00 | 0.00 | 83 | 1019.5 |
| 20260903005010 | 67 | 204 | 0.0 | 5.0 | 0.00 | 0.00 | 0.00 | 85 | 1019.2 |
| 20260903004541 | 67 | 215 | 0.0 | 4.0 | 0.00 | 0.00 | 0.00 | 88 | 1018.7 |
| 20260903004014 | 67 | 187 | 1.0 | 4.0 | 0.00 | 0.00 | 0.00 | 89 | 1018.5 |
| 20260903003504 | 67 | 148 | 1.0 | 3.0 | 0.00 | 0.00 | 0.00 | 90 | 1018.6 |
| 20260903003005 | 67 | 159 | 0.0 | 2.0 | 0.00 | 0.00 | 0.00 | 90 | 1018.8 |
| 20260903002503 | 67 | 171 | 0.0 | 4.0 | 0.00 | 0.00 | 0.00 | 90 | 1018.8 |
| 20260903002006 | 67 | 158 | 2.0 | 4.0 | 0.00 | 0.00 | 0.00 | 90 | 1018.5 |
| 20260903001516 | 67 | 160 | 0.0 | 2.0 | 0.00 | 0.00 | 0.00 | 90 | 1018.6 |
| 20260903001007 | 67 | 178 | 0.0 | 0.0 | 0.00 | 0.00 | 0.00 | 90 | 1018.8 |
| 20260903000506 | 67 | 183 | 0.0 | 0.0 | 0.00 | 0.00 | 0.00 | 90 | 1019.0 |
| 20260903000018 | 67 | 198 | 0.0 | 0.0 | 0.00 | 0.00 | 0.00 | 90 | 1018.9 |
| 20260902235507 | 68 | 195 | 0.0 | 0.0 | 0.00 | 0.00 | 0.00 | 90 | 1019.1 |
| 20260902235009 | 68 | 195 | 0.0 | 1.0 | 0.00 | 0.00 | 0.00 | 90 | 1019.0 |
| 20260902234526 | 68 | 194 | 0.0 | 1.0 | 0.00 | 0.00 | 0.00 | 89 | 1019.0 |
| 20260902234014 | 68 | 155 | 0.0 | 1.0 | 0.00 | 0.00 | 0.00 | 89 | 1019.1 |
| 20260902233511 | 68 | 155 | 0.0 | 1.0 | 0.00 | 0.00 | 0.00 | 89 | 1019.2 |
| 20260902233030 | 68 | 167 | 0.0 | 1.0 | 0.00 | 0.00 | 0.00 | 89 | 1019.2 |
| 20260902232519 | 68 | 175 | 0.0 | 1.0 | 0.00 | 0.00 | 0.00 | 89 | 1019.3 |
| 20260902232002 | 68 | 164 | 0.0 | 1.0 | 0.00 | 0.00 | 0.00 | 89 | 1019.6 |
| 20260902231513 | 68 | 207 | 0.0 | 1.0 | 0.00 | 0.00 | 0.00 | 88 | 1019.6 |
| 20260902231005 | 68 | 167 | 0.0 | 3.0 | 0.00 | 0.00 | 0.00 | 88 | 1019.7 |
| 20260902230508 | 68 | 153 | 0.0 | 3.0 | 0.00 | 0.00 | 0.00 | 88 | 1019.7 |
| 20260902230016 | 69 | 207 | 0.0 | 1.0 | 0.00 | 0.00 | 0.00 | 88 | 1019.9 |
| 20260902225506 | 69 | 180 | 0.0 | 1.0 | 0.00 | 0.00 | 0.00 | 88 | 1020.1 |
| 20260902225009 | 69 | 176 | 0.0 | 0.0 | 0.00 | 0.00 | 0.00 | 87 | 1020.2 |
| 20260902224518 | 69 | 184 | 0.0 | 0.0 | 0.00 | 0.00 | 0.00 | 87 | 1020.4 |
| 20260902224010 | 69 | 243 | 0.0 | 1.0 | 0.00 | 0.00 | 0.00 | 87 | 1020.5 |
| 20260902223514 | 69 | 244 | 0.0 | 1.0 | 0.00 | 0.00 | 0.00 | 87 | 1020.4 |
| 20260902223035 | 69 | 100 | 0.0 | 0.0 | 0.00 | 0.00 | 0.00 | 86 | 1020.4 |
| 20260902222514 | 69 | 101 | 0.0 | 1.0 | 0.00 | 0.00 | 0.00 | 86 | 1020.2 |
| 20260902222015 | 69 | 101 | 0.0 | 1.0 | 0.00 | 0.00 | 0.00 | 86 | 1020.2 |
| 20260902221530 | 69 | 240 | 0.0 | 1.0 | 0.00 | 0.00 | 0.00 | 85 | 1020.4 |
| 20260902221016 | 69 | 240 | 0.0 | 1.0 | 0.00 | 0.00 | 0.00 | 85 | 1020.4 |
| 20260902220506 | 69 | 239 | 0.0 | 1.0 | 0.00 | 0.00 | 0.00 | 85 | 1020.4 |
| 20260902220010 | 69 | 238 | 0.0 | 1.0 | 0.00 | 0.00 | 0.00 | 85 | 1020.4 |
| 20260902215505 | 69 | 238 | 0.0 | 1.0 | 0.00 | 0.00 | 0.00 | 85 | 1020.4 |
| 20260902215005 | 70 | 224 | 0.0 | 0.0 | 0.00 | 0.00 | 0.00 | 85 | 1020.3 |
| 20260902214526 | 70 | 250 | 0.0 | 0.0 | 0.00 | 0.00 | 0.00 | 84 | 1020.2 |
| 20260902214010 | 70 | 252 | 0.0 | 0.0 | 0.00 | 0.00 | 0.00 | 84 | 1020.3 |
| 20260902213509 | 70 | 252 | 0.0 | 0.0 | 0.00 | 0.00 | 0.00 | 83 | 1020.4 |
| 20260902213029 | 70 | 252 | 0.0 | 1.0 | 0.00 | 0.00 | 0.00 | 83 | 1020.2 |
| 20260902212510 | 70 | 252 | 0.0 | 1.0 | 0.00 | 0.00 | 0.00 | 84 | 1020.3 |
| 20260902212012 | 70 | 231 | 0.0 | 1.0 | 0.00 | 0.00 | 0.00 | 83 | 1020.2 |
| 20260902211531 | 70 | 233 | 0.0 | 1.0 | 0.00 | 0.00 | 0.00 | 84 | 1020.3 |
| 20260902211017 | 70 | 233 | 0.0 | 1.0 | 0.00 | 0.00 | 0.00 | 83 | 1020.3 |
| 20260902210516 | 70 | 233 | 0.0 | 1.0 | 0.00 | 0.00 | 0.00 | 82 | 1020.3 |
| 20260902210034 | 71 | 233 | 0.0 | 1.0 | 0.00 | 0.00 | 0.00 | 80 | 1020.3 |
| 20260902205518 | 71 | 233 | 0.0 | 1.0 | 0.00 | 0.00 | 0.00 | 80 | 1020.3 |
| 20260902205016 | 71 | 233 | 0.0 | 1.0 | 0.00 | 0.00 | 0.00 | 80 | 1020.4 |
| 20260902204512 | 71 | 227 | 0.0 | 4.0 | 0.00 | 0.00 | 0.00 | 79 | 1020.2 |
| 20260902204007 | 71 | 215 | 1.0 | 4.0 | 0.00 | 0.00 | 0.00 | 78 | 1020.1 |
| 20260902203508 | 72 | 199 | 2.0 | 4.0 | 0.00 | 0.00 | 0.00 | 77 | 1020.0 |
| 20260902203031 | 72 | 165 | 0.0 | 4.0 | 0.00 | 0.00 | 0.00 | 79 | 1020.0 |
| 20260902202510 | 72 | 191 | 1.0 | 3.0 | 0.00 | 0.00 | 0.00 | 78 | 1020.2 |
| 20260902202010 | 72 | 174 | 1.0 | 3.0 | 0.00 | 0.00 | 0.00 | 78 | 1020.2 |
| 20260902201526 | 72 | 160 | 1.0 | 4.0 | 0.00 | 0.00 | 0.00 | 78 | 1020.3 |
| 20260902201012 | 72 | 158 | 1.0 | 4.0 | 0.00 | 0.00 | 0.00 | 77 | 1020.3 |
| 20260902200514 | 72 | 175 | 1.0 | 4.0 | 0.00 | 0.00 | 0.00 | 77 | 1020.5 |
| 20260902200030 | 72 | 213 | 1.0 | 3.0 | 0.00 | 0.00 | 0.00 | 77 | 1020.6 |
| 20260902195514 | 71 | 158 | 1.0 | 4.0 | 0.00 | 0.00 | 0.00 | 78 | 1020.7 |
| 20260902195013 | 71 | 158 | 1.0 | 7.0 | 0.00 | 0.00 | 0.00 | 77 | 1020.9 |
| 20260902194532 | 72 | 200 | 3.0 | 7.0 | 0.00 | 0.00 | 0.00 | 76 | 1020.8 |
| 20260902194018 | 72 | 176 | 1.0 | 6.0 | 0.00 | 0.00 | 0.00 | 78 | 1020.7 |
| 20260902193518 | 72 | 159 | 2.0 | 6.0 | 0.00 | 0.00 | 0.00 | 77 | 1020.7 |
| 20260902193019 | 72 | 206 | 2.0 | 4.0 | 0.00 | 0.00 | 0.00 | 76 | 1020.7 |
| 20260902192509 | 72 | 153 | 0.0 | 3.0 | 0.00 | 0.00 | 0.00 | 77 | 1020.8 |
| 20260902192010 | 72 | 77 | 0.0 | 3.0 | 0.00 | 0.00 | 0.00 | 77 | 1020.8 |
| 20260902191536 | 72 | 215 | 1.0 | 4.0 | 0.00 | 0.00 | 0.00 | 77 | 1020.8 |
| 20260902191011 | 72 | 154 | 1.0 | 5.0 | 0.00 | 0.00 | 0.00 | 76 | 1020.8 |
| 20260902190516 | 71 | 205 | 2.0 | 5.0 | 0.00 | 0.00 | 0.00 | 76 | 1020.9 |
| 20260902190032 | 72 | 148 | 1.0 | 4.0 | 0.00 | 0.00 | 0.00 | 76 | 1021.0 |
| 20260902185503 | 72 | 203 | 2.0 | 4.0 | 0.00 | 0.00 | 0.00 | 74 | 1021.2 |
| 20260902185003 | 72 | 242 | 0.0 | 4.0 | 0.00 | 0.00 | 0.00 | 76 | 1021.2 |
| 20260902184519 | 72 | 89 | 0.0 | 5.0 | 0.00 | 0.01 | 0.00 | 75 | 1021.1 |
| 20260902184004 | 72 | 245 | 0.0 | 5.0 | 0.00 | 0.01 | 0.00 | 76 | 1021.0 |
| 20260902183506 | 72 | 215 | 2.0 | 8.0 | 0.00 | 0.01 | 0.00 | 75 | 1021.0 |
| 20260902183014 | 72 | 171 | 3.0 | 8.0 | 0.00 | 0.02 | 0.00 | 75 | 1021.0 |
| 20260902182507 | 72 | 147 | 3.0 | 7.0 | 0.00 | 0.02 | 0.00 | 75 | 1021.1 |
| 20260902182008 | 72 | 185 | 3.0 | 7.0 | 0.00 | 0.02 | 0.00 | 76 | 1021.0 |
| 20260902181519 | 72 | 212 | 4.0 | 6.0 | 0.00 | 0.02 | 0.00 | 75 | 1021.1 |
| 20260902181010 | 72 | 197 | 4.0 | 6.0 | 0.00 | 0.03 | 0.00 | 74 | 1021.1 |
| 20260902180512 | 72 | 176 | 3.0 | 6.0 | 0.00 | 0.03 | 0.00 | 74 | 1021.1 |
| 20260902180031 | 72 | 191 | 3.0 | 6.0 | 0.00 | 0.03 | 0.00 | 72 | 1021.1 |
| 20260902175503 | 73 | 184 | 2.0 | 8.0 | 0.00 | 0.03 | 0.00 | 75 | 1021.1 |
| 20260902175005 | 73 | 144 | 2.0 | 8.0 | 0.00 | 0.04 | 0.00 | 74 | 1021.3 |
| 20260902174507 | 73 | 151 | 1.0 | 4.0 | 0.00 | 0.04 | 0.00 | 75 | 1021.4 |
| 20260902174004 | 73 | 68 | 2.0 | 4.0 | 0.00 | 0.04 | 0.00 | 74 | 1021.3 |
| 20260902173505 | 72 | 180 | 1.0 | 3.0 | 0.00 | 0.05 | 0.00 | 74 | 1021.3 |
| 20260902173008 | 72 | 217 | 0.0 | 2.0 | 0.00 | 0.06 | 0.00 | 75 | 1021.3 |
| 20260902172506 | 71 | 146 | 0.0 | 4.0 | 0.00 | 0.08 | 0.00 | 76 | 1021.5 |
| 20260902172006 | 71 | 100 | 1.0 | 4.0 | 0.00 | 0.13 | 0.00 | 74 | 1021.6 |
| 20260902171515 | 71 | 123 | 1.0 | 3.0 | 0.00 | 0.16 | 0.00 | 74 | 1021.6 |
| 20260902171009 | 72 | 117 | 0.0 | 3.0 | 0.00 | 0.17 | 0.00 | 75 | 1021.4 |
| 20260902170509 | 72 | 89 | 0.0 | 3.0 | 0.00 | 0.17 | 0.00 | 74 | 1021.5 |
| 20260902170022 | 72 | 162 | 1.0 | 4.0 | 0.00 | 0.17 | 0.00 | 75 | 1021.5 |
| 20260902165509 | 71 | 124 | 1.0 | 4.0 | 0.00 | 0.17 | 0.00 | 76 | 1021.5 |
| 20260902165013 | 71 | 161 | 2.0 | 4.0 | 0.00 | 0.17 | 0.00 | 76 | 1021.6 |
| 20260902164529 | 71 | 237 | 2.0 | 5.0 | 0.00 | 0.17 | 0.00 | 74 | 1021.6 |
| 20260902164006 | 71 | 208 | 3.0 | 6.0 | 0.00 | 0.17 | 0.00 | 75 | 1021.5 |
| 20260902163504 | 71 | 257 | 1.0 | 7.0 | 0.00 | 0.17 | 0.00 | 77 | 1021.6 |
| 20260902163009 | 70 | 167 | 3.0 | 7.0 | 0.00 | 0.17 | 0.00 | 77 | 1021.6 |
| 20260902162504 | 70 | 224 | 3.0 | 5.0 | 0.00 | 0.18 | 0.00 | 77 | 1021.7 |
| 20260902162008 | 70 | 88 | 2.0 | 5.0 | 0.00 | 0.18 | 0.00 | 79 | 1021.7 |
| 20260902161514 | 70 | 127 | 0.0 | 2.0 | 0.00 | 0.20 | 0.00 | 79 | 1021.8 |
| 20260902161006 | 71 | 90 | 2.0 | 2.0 | 0.00 | 0.21 | 0.00 | 78 | 1022.0 |
| 20260902160509 | 70 | 213 | 0.0 | 2.0 | 0.00 | 0.23 | 0.00 | 78 | 1022.1 |
| 20260902160018 | 70 | 213 | 1.0 | 2.0 | 0.00 | 0.23 | 0.00 | 79 | 1022.2 |
| 20260902155510 | 70 | 122 | 0.0 | 2.0 | 0.00 | 0.23 | 0.00 | 79 | 1022.2 |
| 20260902155009 | 70 | 160 | 0.0 | 2.0 | 0.00 | 0.23 | 0.00 | 80 | 1022.3 |
| 20260902154527 | 69 | 224 | 1.0 | 2.0 | 0.00 | 0.24 | 0.00 | 80 | 1022.3 |
| 20260902154011 | 69 | 219 | 1.0 | 2.0 | 0.00 | 0.24 | 0.00 | 80 | 1022.3 |
| 20260902153512 | 69 | 217 | 0.0 | 3.0 | 0.00 | 0.24 | 0.00 | 80 | 1022.2 |
| 20260902153028 | 68 | 217 | 1.0 | 3.0 | 0.00 | 0.24 | 0.00 | 80 | 1022.3 |
| 20260902152503 | 68 | 213 | 1.0 | 2.0 | 0.00 | 0.24 | 0.00 | 80 | 1022.3 |
| 20260902152003 | 68 | 106 | 1.0 | 2.0 | 0.00 | 0.24 | 0.00 | 81 | 1022.4 |
| 20260902151507 | 69 | 151 | 0.0 | 1.0 | 0.00 | 0.24 | 0.00 | 80 | 1022.4 |
| 20260902151004 | 69 | 160 | 0.0 | 1.0 | 0.00 | 0.24 | 0.00 | 81 | 1022.6 |
| 20260902150504 | 69 | 172 | 0.0 | 2.0 | 0.00 | 0.24 | 0.00 | 80 | 1022.8 |
| 20260902150015 | 68 | 193 | 0.0 | 3.0 | 0.00 | 0.24 | 0.00 | 80 | 1022.7 |
| 20260902145507 | 68 | 207 | 0.0 | 3.0 | 0.00 | 0.24 | 0.00 | 81 | 1022.7 |
| 20260902145008 | 69 | 248 | 1.0 | 3.0 | 0.00 | 0.24 | 0.00 | 81 | 1022.6 |
| 20260902144532 | 68 | 160 | 1.0 | 4.0 | 0.00 | 0.24 | 0.00 | 81 | 1022.6 |
| 20260902144012 | 68 | 230 | 1.0 | 4.0 | 0.00 | 0.24 | 0.00 | 80 | 1022.5 |
| 20260902143512 | 69 | 214 | 0.0 | 3.0 | 0.00 | 0.24 | 0.00 | 80 | 1022.4 |
| 20260902143026 | 68 | 201 | 0.0 | 3.0 | 0.00 | 0.24 | 0.00 | 81 | 1022.3 |
| 20260902142513 | 68 | 227 | 0.0 | 2.0 | 0.00 | 0.24 | 0.00 | 81 | 1022.3 |
| 20260902142012 | 68 | 155 | 0.0 | 1.0 | 0.00 | 0.24 | 0.00 | 82 | 1022.3 |
| 20260902141536 | 67 | 224 | 0.0 | 2.0 | 0.00 | 0.24 | 0.00 | 84 | 1022.4 |
| 20260902141005 | 67 | 224 | 0.0 | 2.0 | 0.00 | 0.25 | 0.00 | 84 | 1022.4 |
| 20260902140506 | 66 | 168 | 0.0 | 2.0 | 0.00 | 0.25 | 0.00 | 84 | 1022.4 |
| 20260902140010 | 66 | 184 | 0.0 | 2.0 | 0.00 | 0.25 | 0.00 | 84 | 1022.3 |
| 20260902135509 | 66 | 81 | 1.0 | 2.0 | 0.00 | 0.25 | 0.00 | 85 | 1022.2 |
| 20260902135008 | 66 | 79 | 0.0 | 2.0 | 0.00 | 0.25 | 0.00 | 84 | 1022.2 |
| 20260902134516 | 66 | 84 | 1.0 | 4.0 | 0.00 | 0.25 | 0.00 | 83 | 1022.1 |
| 20260902134009 | 66 | 137 | 0.0 | 4.0 | 0.00 | 0.25 | 0.00 | 85 | 1022.1 |
| 20260902133511 | 66 | 210 | 1.0 | 5.0 | 0.00 | 0.25 | 0.00 | 86 | 1022.0 |
| 20260902133027 | 66 | 210 | 2.0 | 5.0 | 0.00 | 0.25 | 0.00 | 85 | 1021.8 |
| 20260902132515 | 66 | 214 | 1.0 | 3.0 | 0.00 | 0.25 | 0.00 | 87 | 1021.7 |
| 20260902132014 | 65 | 42 | 0.0 | 1.0 | 0.00 | 0.25 | 0.00 | 87 | 1021.8 |
| 20260902131528 | 65 | 71 | 0.0 | 1.0 | 0.00 | 0.25 | 0.00 | 87 | 1021.7 |
| 20260902131014 | 65 | 167 | 0.0 | 4.0 | 0.00 | 0.25 | 0.00 | 88 | 1021.9 |
| 20260902130514 | 65 | 82 | 0.0 | 4.0 | 0.00 | 0.25 | 0.00 | 87 | 1021.8 |
| 20260902130033 | 65 | 254 | 0.0 | 3.0 | 0.00 | 0.25 | 0.00 | 87 | 1021.9 |
| 20260902125517 | 65 | 80 | 0.0 | 0.0 | 0.00 | 0.25 | 0.00 | 87 | 1021.8 |
| 20260902125008 | 65 | 240 | 0.0 | 0.0 | 0.00 | 0.25 | 0.00 | 88 | 1021.8 |
| 20260902124514 | 65 | 22 | 0.0 | 0.0 | 0.00 | 0.25 | 0.00 | 90 | 1022.0 |
| 20260902124006 | 64 | 50 | 0.0 | 0.0 | 0.00 | 0.25 | 0.00 | 90 | 1021.8 |
| 20260902123510 | 64 | 359 | 0.0 | 0.0 | 0.00 | 0.25 | 0.00 | 90 | 1021.8 |
| 20260902123023 | 64 | 351 | 0.0 | 0.0 | 0.00 | 0.26 | 0.00 | 92 | 1021.9 |
| 20260902122512 | 64 | 351 | 0.0 | 0.0 | 0.00 | 0.26 | 0.00 | 93 | 1022.0 |
| 20260902122010 | 63 | 79 | 0.0 | 0.0 | 0.00 | 0.26 | 0.00 | 94 | 1021.9 |
| 20260902121528 | 63 | 79 | 0.0 | 1.0 | 0.00 | 0.26 | 0.00 | 95 | 1021.9 |
| 20260902121014 | 63 | 79 | 0.0 | 1.0 | 0.00 | 0.26 | 0.00 | 95 | 1022.0 |
| 20260902120514 | 63 | 79 | 0.0 | 1.0 | 0.00 | 0.26 | 0.00 | 96 | 1022.1 |
| 20260902120029 | 62 | 96 | 0.0 | 1.0 | 0.00 | 0.26 | 0.00 | 96 | 1022.1 |